COSMOS 2407 1 28380U 04028A 26255.10747794 .00000049 00000+0 34178-4 0 9993 2 28380 82.9645 10.4467 0039380 11.3084 160.8101 13.76340069111839 COSMOS 2414 1 28521U 05002A 26254.97388693 .00000061 00000+0 37081-4 0 9996 2 28521 82.9538 338.0024 0041512 82.3822 278.2054 13.87933747095850 COSMOS 2463 1 36519U 10017A 26254.92308543 .00000035 00000+0 22237-4 0 9993 2 36519 82.9640 185.9829 0034720 248.8415 179.4463 13.71670095819826